Location: Trebic
(49.2170°N, 15.8830°E)
Time: 22:09:46
(UTC+01:00)

Transit 4A - Pass Details

Date: 03 November 2020
Orbit: 862 x 982 km, 66.8° (Epoch: 30 November)

Event Time Altitude Azimuth Distance (km) Brightness Sun altitude
Rises 20:52:48 0° 323° (NW) 3,696 11.7 -42.1°
Reaches altitude 10° 20:55:35 10° 331° (NNW) 2,745 10.8 -42.5°
Enters shadow 20:57:28 19° 341° (NNW) 2,154 10.1 -42.8°
